Powrót do katalogu

YAOGAN-30 AE

AktywnyMilitariaVLEO
NORAD 49028·PAYLOAD·🇨🇳 China

Wystrzelony Jul 19, 2021 z Xichang Satellite Launch Center

Loading…

Następne Przeloty (najbliższe 24 godziny)

TLE

ŚwieżeSource: Space-Track

Epoka: Sep 14, 2026, 15:37 UTC

1 49028U 21065C   26257.65116626  .00001658  00000-0  12273-3 0  9990
2 49028  34.9929  87.3734 0001022 281.7129  78.3465 15.03049815282098

Śledź YAOGAN-30 AE w czasie rzeczywistym z AllMySat

Download on the App Store